Tracking 18843 objects as of 20-November-2017
HD Live streaming from Space Station
objects crossing your sky now

NIMBUS 2 DEB

Track NIMBUS 2 DEB now!
10-day predictions


NORAD ID: 28206
Int'l Code: 1966-040U
Perigee: 1,074.7 km
Apogee: 1,147.2 km
Inclination: 100.4 °
Period: 107.3 minutes
Semi major axis: 7481 km
RCS: 0.0203 m2 (small)
Launch date: May 15, 1966
Source: United States (US)
Launch site: AIR FORCE WESTERN TEST RANGE (AFWTR)

Note: This is SATELLITE DEBRIS
aabbcc
Your satellite tracking list
Your tracking list is empty




NASA's NSSDC Master Catalog

Two Line Element Set (TLE):
1 28206U 66040U   17323.87898550  .00000789  00000-0  14919-2 0  9990
2 28206 100.3804  71.8881 0048486 325.1313 156.7368 13.41468694671339
Source of the keplerian elements: AFSPC